Dewpoint
18 18 18 17 17 17 17 18 18 18 19 19 19 20 20 21 21 21 22 21 22 23
17 16 16 16 16 17 17 17 17 18 18 19 19 20 20 20 20 21 21 22 22 22
16 17 17 17 17 17 17 17 18 18 18 18 19 19 19 20 20 21 21 21 21 21
15 15 16 17 16 17 18 18 18 18 18 19 19 19 19 19 20 20 21 21 21 21
16 16 15 15 16 17 17 18 18 18 18 18 18 19 19 19 19 19 20 20 21 21
14 16 17 17 17 17 17 17 18 18 18 18 18 18 19 19 19 19 20 20 20 21
13 14 15 16 17 17 17 17 17 17 18 18 18 18 19 19 19 19 19 20 20 20
14 14 14 15 16 17 17 17 17 17 17 18 18 17 18 19 20 20 19 20 20 21
13 14 14 14 15 16 16 17 17 17 17 18 17 23 25 25 23 26 25 22 20 20
12 13 14 14 15 15 16 17 18 18 18 18 18 25 26 27 25 26 26 25 25 25
12 13 14 15 15 15 16 17 18 20 21 22 23 27 27 29 27 28 27 26 24 24
13 14 15 14 15 16 17 19 19 21 23 24 22 25 26 27 28 27 27 27 26 26
14 14 15 15 16 18 19 21 23 22 22 22 22 26 28 29 28 28 28 27 26 28
13 15 15 17 18 20 22 22 22 21 21 22 24 25 30 31 29 29 29 29 27 27
Lifted_Index
22 22 23 23 23 23 23 24 24 24 24 24 24 24 24 24 23 23 22 22 22 22
23 23 23 23 23 23 24 24 24 25 25 24 24 24 24 24 24 24 23 23 22 22
23 23 23 23 23 23 24 24 24 24 24 24 24 24 24 24 24 24 24 24 23 23
23 23 23 23 23 23 23 23 23 22 22 22 22 22 22 22 22 22 23 23 23 23
23 23 23 23 22 22 21 20 19 19 18 18 18 18 18 18 18 18 19 19 20 20
22 22 21 21 20 19 18 17 16 16 15 15 15 15 15 15 15 15 15 16 16 17
21 20 19 18 16 16 15 14 14 14 14 14 14 14 14 14 14 13 13 13 14 14
18 17 16 15 14 14 14 14 14 14 14 14 14 14 14 14 14 13 13 13 13 13
16 15 14 14 14 14 14 14 14 14 15 15 15 15 15 14 14 13 13 13 12 12
14 14 13 13 13 14 14 15 15 15 16 16 16 15 15 14 13 13 13 12 12 12
13 13 13 14 14 14 15 15 16 16 17 17 16 15 14 13 13 12 12 12 11 12
13 14 14 14 14 15 16 16 17 17 17 17 16 15 14 13 12 11 11 10 10 10
13 14 14 15 15 16 17 17 18 18 17 17 16 15 13 12 11 10 9 8 8 8
14 14 15 16 16 17 17 18 18 18 17 17 16 15 13 12 11 9 8 7 6 7